Location: Newark
(49.3000°N, 9.4667°E)
Time: 08:32:58
(UTC+00:00)

Transit 2A Rocket - Pass Details

Date: 23 May 2019
Orbit: 587 x 917 km, 66.7° (Epoch: 24 June)

Event Time Altitude Azimuth Distance (km) Brightness Sun altitude
Rises 01:44:43 0° 322° (NW) 3,453 8.6 -13.0°
Reaches altitude 10° 01:47:19 10° 319° (NW) 2,470 7.8 -12.8°
Maximum altitude 01:52:55 60° 241° (WSW) 900 5.1 -12.3°
Drops below altitude 10° 01:57:58 10° 162° (SSE) 2,238 7.1 -11.8°
Sets 02:00:14 0° 158° (SSE) 3,104 7.9 -11.5°
